Showing default

LEMUR-2 MARIO-SOUSA, 67365

Orbit data source: Space-Track

LEMUR-2 MARIO-SOUSA, 67365 is a payload satellite owned by Spire/Lux (US) in SSO that was launched on Sun, 11 Jan 2026 UTC via an FALCON 9 launch vehicle from the Air Force Western Test Range (AFWTR). Payload-class satellites include a variety of spacecraft equipped with specific instruments for various scientific and technological missions. These include communications satellites like Starlink; space stations such as the ISS; scientific satellites like the Hubble; Earth observation satellites from companies like Planet Labs, Umbra, and HawkEye 360; GPS; miniature CubeSats for education and research; and military/defense satellites.

Loading next visibility...
Identifier
67365, 2026-004C
Orbit
SSO
Country
Flag of USUS
Related business
Manufacturer
Spire/Glasgow
Mission
Operational Commercial Com/MetRO
Bus & Motor
CUBESAT 3U, Unknown motor
Mass
4.6 kg wet, 4.6 kg dry
Launch date (UTC)
2026-01-11 (4 months ago)
Launch vehicle
FALCON 9
Launch site
Air Force Western Test Range (AFWTR)
Object type
Payload
Rocket body
Debris
Shape & HBR
Box + 2 Pan, 0.2 m
Radar Cross Section
0.054 m²

Expand to show TLE details & history
Last TLE update: 6 hours ago

TLE from 6 hours ago
0 LEMUR-2 MARIO-SOUSA
1 67365U 26004C   26146.53816729  .00004769  00000-0  52117-3 0  9994
2 67365  97.7988 145.4298 0007538 200.8484 159.2427 14.88309484 20077
Epoch: 2026-05-26T12:54Z
TLE epoch observation values (Epoch: 2026-05-26T12:54:57.653Z)
Latitude
0.00001°
Longitude
67.57941°
Altitude
611.176 km
Speed
7.551 km/s
True Right ascension
09h 41m 43s
True Declination
0° 00' 00"
Sunlit
Object was in daylight at epoch
Visualization orbit readout
Latitude
Unknown
Longitude
Unknown
Altitude
Unknown
Speed
Unknown
Apparent Right ascension
Unknown
Apparent Declination
Unknown
Sunlit
N/A
Visualization observer readout
Local Sidereal Time
04:33:09
Azimuth
Unknown
Elevation
Unknown
Doppler factor
Unknown
Orbital elements
Apogee altitude
605.503 km
Perigee altitude
594.982 km
Semi-major axis
6,978.379 km
Eccentricity
0.00075
Inclination
97.7988°
RAAN
145.4298°
Arg. of periapsis
200.8484°
True anomaly
159.27329°
Mean anomaly
159.2427°
Eccentric anomaly
159.258°
Mean motion
3.72316 °/min
Orbital period
96.69 mins
BSTAR
0.00052117
Loading maneuver chart data...
Computing Atmospheric mass density...
Loading historical data...
Loading historical data...
Loading historical data...
Loading historical data...
Loading historical data...
Loading historical data...
Loading historical data...

Documentation

Showing up to 5 results
|